Location: Devargunta
(16.7631°N, 80.9077°E)
Time: 19:27:38
(UTC+00:00)

Okean-O - Pass Details

Date: 19 January 2021
Orbit: 638 x 641 km, 98.2° (Epoch: 03 March)

Event Time Altitude Azimuth Distance (km) Brightness Sun altitude
Rises 12:43:35 0° 134° (SE) 2,932 5.8 -4.9°
Reaches altitude 10° 12:46:25 10° 115° (ESE) 2,025 4.8 -5.5°
Maximum altitude 12:49:18 17° 74° (ENE) 1,596 4.0 -6.2°
Drops below altitude 10° 12:52:12 10° 32° (NNE) 2,028 4.7 -6.9°
Sets 12:55:02 0° 13° (NNE) 2,938 5.7 -7.5°
